Location: Marshall
(39.8477°N, 87.1868°W)
Time: 02:51:36
(UTC+00:00)

Envisat - Pass Details

Date: 13 May 2026
Orbit: 761 x 763 km, 98.4° (Epoch: 9 June)

Event Time Altitude Azimuth Distance (km) Brightness Sun altitude
Rises 08:31:19 0° 12° (NNE) 3,231 7.2 -20.0°
Reaches altitude 10° 08:33:38 10° 11° (N) 2,301 6.3 -19.7°
Maximum altitude 08:38:42 82° 286° (WNW) 773 2.9 -19.1°
Enters shadow 08:41:02 33° 201° (SSW) 1,261 3.6 -18.8°
